{"data":{"norad_id":58483,"intl_designator":"2023-186L","name":"STARLINK-30994","alt_names":[],"object_type":"PAYLOAD","status":"ACTIVE","operator":null,"country":"US","launch_date":"2023-12-03","launch_site_code":"AFETR","launch_vehicle":null,"mission":null,"orbit_class":"UNKNOWN","rcs_meters":null,"size_class":null,"mass_kg":null,"dimensions":null,"purposes":["comms"],"wikipedia_slug":null,"has_3d_model":false,"image_url":null,"decayed_at":null,"tle_current":{"epoch":"2026-05-25T03:50:33.069408Z","epoch_age_seconds":55131,"freshness":"FRESH","line1":"1 58483U 23186L   26145.16010497  .00033680  00000+0  11354-2 0  9999","line2":"2 58483  42.9988 187.9210 0002626   5.8071 354.2812 15.30133684139502","mean_motion":15.30133684,"eccentricity":0.0002626,"inclination_deg":42.9988,"raan_deg":187.921,"arg_perigee_deg":5.8071,"mean_anomaly_deg":354.2812,"bstar":0.0011354,"rev_number":13950,"period_min":94.109424232504,"perigee_km":473.61334194102,"apogee_km":477.21282644523,"semimajor_km":6853.5500841931,"source":"CELESTRAK","updated_at":"2026-05-25T13:38:18.651948Z"}}}